LUCH-5X (OLYMP-K 2) (55841 NORAD) Tracking and Keplerian Element Data

This shows tracking and keplerian element data for the satellite.

Feedback or suggestion? Click here.




ElementValue
Catalog55841
NameLUCH-5X (OLYMP-K 2)
Epoch Orbit54
Epoch Day126.21716208
Epoch Year2023
RAAN48.6248
Inclination0.0576
Eccentricity0.0005618
Argument of Perigee151.3138
Mean Anonmoly154.1698
Mean Motion0.99415705
Decay Rate1.32E-06
L11 55841U 23031A 23126.21716208 .00000132 00000+0 00000+0 0 9997
L22 55841 0.0576 48.6248 0005618 151.3138 154.1698 0.99415705 540



Live tracking and technical data element details for LUCH-5X (OLYMP-K 2) (NORAD 55841). LUCH-5X (OLYMP-K 2) can be tracked NOW for your location showing map with azimuth and elevation plus other details from your city location.







IsCatalogInMostPopularTable: catalog: 55841, numindb: 6
Update: records affected: 1



GetName: 55841 LUCH-5X (OLYMP-K 2)

Hit Count: updated at: Tue, 06 Jun 2023 03:02:18 GMT